Weather Roundup
Issued by NWS Springfield, MO

Home | Current Version | Previous Version | Text Only | Print | Product List | Glossary On
Versions: 1 2 3 4 5 6 7 8 9 10 11 12 13 14 15 16 17 18 19 20 21 22 23 24 25 26 27 28 29 30 31 32 33 34 35 36 37 38 39 40 41 42 43 44 45 46 47 48 49 50
000
NZUS99 KSGF 011307
HRRSGF

HOURLY WEATHER
NATIONAL WEATHER SERVICE SPRINGFIELD MO
800 AM CDT WED OCT 01 2014

......SGF CWA......

CITY           SKY/WX    TMP DP  RH WIND       PRES   REMARKS
SPRINGFIELD    CLEAR     66  57  72 S13       29.85R
JOPLIN         CLOUDY    71  60  68 S13       29.82R
WEST PLAINS    MOSUNNY   62  55  77 SE3       29.92R
ROLLA          CLOUDY    63  54  72 S7        29.88R
OSAGE BEACH    PTCLDY    64  54  68 SE3       29.86R
BRANSON        PTCLDY    66  57  72 SE7       29.88R

......SURROUNDING SGF CWA......

CITY           SKY/WX    TMP DP  RH WIND       PRES   REMARKS
CHANUTE        CLOUDY    71  63  75 S12       29.78R
PARSONS        CLOUDY    71  63  75 S6        29.80R
COFFEYVILLE    CLOUDY    71  63  75 S9        29.78R
EMPORIA        PTCLDY    67  64  90 S9        29.75R
GROVE OK       MOCLDY    72  61  68 SE7       29.83R
ROGERS AR      CLEAR     68  59  73 SE9       29.87R
SILOAM SPRINGS CLEAR     70  57  64 S8        29.86R
HARRISON AR    CLEAR     63  59  87 SE3       29.89R
NEAR YELLVILLE SUNNY     57  52  82 CALM      29.88S

......KANSAS AND MISSOURI......

CITY           SKY/WX    TMP DP  RH WIND       PRES   REMARKS
KANSAS CTY INT CLOUDY    65  64  97 SE10      29.78S
DOWNTOWN KC    MOCLDY    68  64  87 E5        29.78R
COLUMBIA       PTCLDY    62  56  80 SE9       29.85S
SEDALIA        TSTM      67  60  78 SE13      29.82R
ST JOSEPH      CLOUDY    65  63  93 SE9       29.77R
ST LOUIS       MOSUNNY   64  60  87 E8        29.92R
SPIRIT OF STL  SUNNY     64  59  83 CALM      29.90R
KIRKSVILLE     CLOUDY    62  59  90 E6        29.86S FOG
WICHITA        PTCLDY    69  64  84 SE7       29.74R
TOPEKA         MOCLDY    67  65  93 E5        29.75R
OLATHE         PTCLDY    67  61  81 CALM      29.78R

......TENNESSEE......

CITY           SKY/WX    TMP DP  RH WIND       PRES   REMARKS
MEMPHIS        MOSUNNY   71  61  70 S6        29.92S
NASHVILLE      PTSUNNY   60  56  86 CALM      29.99R

......ARKANSAS.......

CITY           SKY/WX    TMP DP  RH WIND       PRES   REMARKS
FAYETTEVILLE   CLEAR     69  61  75 CALM      29.87R
FT SMITH       CLEAR     67  62  84 NE5       29.84R
LITTLE ROCK    PTSUNNY   71  63  75 CALM      29.88S

......OKLAHOMA.......

CITY           SKY/WX    TMP DP  RH WIND       PRES   REMARKS
TULSA          MOCLDY    72  64  76 S12       29.79R
PONCA CITY     PTCLDY    70  65  84 E10       29.74R
MCALESTER      CLEAR     73  69  87 S7        29.82R
OKLAHOMA CITY  PTCLDY    71  65  81 S10       29.76R

......IOWA............

CITY           SKY/WX    TMP DP  RH WIND       PRES   REMARKS
DES MOINES     LGT RAIN  60  57  89 SE9G20    29.79R

......ILLINOIS........

CITY           SKY/WX    TMP DP  RH WIND       PRES   REMARKS
QUINCY         MOSUNNY   56  52  86 SE10      29.89S
CHICAGO        MOSUNNY   53  47  79 SE10      30.01S



USA.gov is the U.S. government's official web portal to all federal, state and local government web resources and services.